TimeMDT,TemperatureF,Dew PointF,Humidity,Sea Level PressureIn,VisibilityMPH,Wind Direction,Wind SpeedMPH,Gust SpeedMPH,PrecipitationIn,Events,Conditions,WindDirDegrees,DateUTC
12:53 AM,28.0,25.0,88,30.15,9.0,WSW,5.8,-,N/A,,Clear,240,2011-10-29 06:53:00
1:53 AM,27.0,24.1,89,30.12,10.0,WSW,5.8,-,N/A,,Clear,240,2011-10-29 07:53:00
2:53 AM,28.0,23.0,81,30.10,10.0,SW,5.8,-,N/A,,Clear,220,2011-10-29 08:53:00
3:53 AM,33.8,24.8,70,30.02,10.0,SW,11.5,-,N/A,,Clear,230,2011-10-29 09:53:00
4:53 AM,33.1,25.0,72,30.04,10.0,SSW,10.4,-,N/A,,Clear,210,2011-10-29 10:53:00
5:53 AM,30.9,25.0,79,30.04,10.0,SW,6.9,-,N/A,,Clear,220,2011-10-29 11:53:00
6:53 AM,30.9,25.0,79,30.05,10.0,WSW,5.8,-,N/A,,Clear,240,2011-10-29 12:53:00
7:53 AM,32.0,26.1,79,30.04,10.0,WSW,6.9,-,N/A,,Clear,240,2011-10-29 13:53:00
8:53 AM,34.0,28.0,79,30.03,10.0,West,6.9,-,N/A,,Clear,260,2011-10-29 14:53:00
9:53 AM,43.0,32.0,65,29.98,10.0,West,4.6,-,N/A,,Clear,270,2011-10-29 15:53:00
10:53 AM,53.1,35.1,50,29.95,10.0,SW,4.6,-,N/A,,Clear,230,2011-10-29 16:53:00
11:53 AM,63.0,30.0,29,29.91,10.0,West,5.8,-,N/A,,Clear,260,2011-10-29 17:53:00
12:53 PM,64.9,19.0,17,29.86,10.0,West,21.9,28.8,N/A,,Clear,280,2011-10-29 18:53:00
1:53 PM,64.0,19.0,18,29.85,10.0,WNW,23.0,36.8,N/A,,Clear,300,2011-10-29 19:53:00
2:53 PM,64.9,23.0,20,29.83,10.0,WNW,23.0,31.1,N/A,,Clear,290,2011-10-29 20:53:00
3:53 PM,64.0,27.0,25,29.82,10.0,West,15.0,-,N/A,,Clear,280,2011-10-29 21:53:00
4:53 PM,62.6,24.8,24,29.83,10.0,WNW,11.5,21.9,N/A,,Clear,300,2011-10-29 22:53:00
5:53 PM,57.0,30.0,36,29.88,10.0,WNW,12.7,20.7,N/A,,Clear,290,2011-10-29 23:53:00
6:53 PM,53.1,30.9,43,29.92,10.0,WNW,12.7,23.0,N/A,,Clear,290,2011-10-30 00:53:00
7:53 PM,50.0,30.9,48,29.96,10.0,NW,15.0,-,N/A,,Clear,310,2011-10-30 01:53:00
8:53 PM,46.0,30.0,54,29.99,10.0,NW,11.5,-,N/A,,Clear,310,2011-10-30 02:53:00
9:53 PM,42.1,26.1,53,30.04,10.0,NNW,13.8,-,N/A,,Clear,340,2011-10-30 03:53:00
10:53 PM,46.0,32.0,58,30.05,10.0,North,15.0,-,N/A,,Overcast,10,2011-10-30 04:53:00
11:53 PM,46.0,32.0,58,30.06,10.0,North,15.0,-,N/A,,Mostly Cloudy,350,2011-10-30 05:53:00